TALR93 YBOK-YBOK

Flight info

Callsign TALR93
Flight time 0h 3m
Altitude 1000
Route DCT
Aircraft H60/M-SDFGRY/LB1

Departure

Time 2026-04-20 07:33
Airport Oakey Army Aviation Centre (YBOK)

Arrival

Time 2026-04-20 07:36
Airport Oakey Army Aviation Centre (YBOK)
Time Latitude Longitude Altitude Speed Heading
2026-04-20 07:30 -27.41245 151.73107 1332 ft 0 kts 12°
2026-04-20 07:32 -27.41244 151.73107 1343 ft 1 kts 355°
2026-04-20 07:32 -27.41221 151.73077 1370 ft 15 kts 287°
2026-04-20 07:33 -27.41165 151.72876 1445 ft 50 kts 274°
2026-04-20 07:33 -27.41014 151.72264 1706 ft 105 kts 262°
2026-04-20 07:33 -27.40789 151.71379 2024 ft 135 kts 280°
2026-04-20 07:33 -27.40557 151.70291 2317 ft 148 kts 276°
2026-04-20 07:34 -27.40418 151.69095 2516 ft 158 kts 283°
2026-04-20 07:34 -27.39893 151.68417 3133 ft 69 kts 78°
2026-04-20 07:34 -27.39538 151.68901 3469 ft 118 kts 62°
2026-04-20 07:35 -27.39203 151.70929 3324 ft 141 kts 81°
2026-04-20 07:35 -27.39334 151.71995 3043 ft 128 kts 100°
2026-04-20 07:35 -27.39583 151.72927 2878 ft 120 kts 115°
2026-04-20 07:35 -27.40105 151.73560 2135 ft 103 kts 186°
2026-04-20 07:36 -27.40712 151.73681 1707 ft 76 kts 190°
2026-04-20 07:36 -27.41169 151.73547 1516 ft 54 kts 256°
2026-04-20 07:36 -27.41278 151.73373 1423 ft 25 kts 274°
2026-04-20 07:36 -27.41258 151.73206 1353 ft 14 kts 268°
2026-04-20 07:37 -27.41259 151.73122 1344 ft 13 kts 290°
2026-04-20 07:37 -27.41243 151.73106 1339 ft 3 kts
2026-04-20 07:37 -27.41239 151.73107 1338 ft 0 kts